Regional Weather Roundup
Issued by NWS

Home | Current Version | Previous Version | Text Only | Print | Product List | Glossary On
Versions: 1 2 3 4 5 6 7 8 9 10 11 12 13 14 15 16 17 18 19 20 21 22 23 24 25 26 27 28 29 30 31 32 33 34 35 36 37 38 39 40 41 42 43 44 45 46 47 48 49 50
000
ASUS45 KPSR 012010
RWRAZ

ARIZONA HOURLY REGIONAL WEATHER ROUNDUP
NATIONAL WEATHER SERVICE PHOENIX AZ
100 PM MST SAT OCT 01 2016

NOTE: FAIR INDICATES FEW OR NO CLOUDS BELOW 12,000 FEET WITH NO
SIGNIFICANT WEATHER AND/OR OBSTRUCTIONS TO VISIBILITY.

AZZ001>003-036-012100-
NORTHWEST ARIZONA

CITY           SKY/WX    TMP DP  RH WIND       PRES   REMARKS
BULLHEAD CITY  SUNNY     95  50  21 S12       29.90F
KINGMAN        MOSUNNY   86  32  14 SW18G26   30.06F
$$

AZZ004>008-015-016-018-012100-
NORTH CENTRAL ARIZONA

CITY           SKY/WX    TMP DP  RH WIND       PRES   REMARKS
GRAND CANYON   CLOUDY    67  47  48 S9        30.27F
PRESCOTT       PTSUNNY   74  48  39 SE8       30.18F
FLAGSTAFF      MOSUNNY   64  45  49 SW10G17   30.28F
PAYSON         MOSUNNY   75  46  35 W9        30.23F
PAGE           MOSUNNY   76  50  40 MISG      30.11F
$$

AZZ009>014-017-012100-
NORTHEAST ARIZONA

CITY           SKY/WX    TMP DP  RH WIND       PRES   REMARKS
WINSLOW        PTSUNNY   75  48  38 NW5       30.17F
SAINT JOHNS    PTSUNNY   75  46  35 W7        30.21F
WINDOW ROCK    CLOUDY    69  41  36 W3        30.26F
SHOW LOW       PTSUNNY   63  46  55 N7        30.28F
$$

AZZ023-012100-
GREATER PHOENIX AREA

CITY           SKY/WX    TMP DP  RH WIND       PRES   REMARKS
PHOENIX        MOSUNNY   93  54  26 VRB7      29.94F
BUCKEYE        SUNNY     91  55  29 S5        29.96F
GLENDALE       MOSUNNY   93  54  26 VRB5      29.95F
LUKE AFB       SUNNY     93  51  23 SE6       29.93F
DEER VALLEY    SUNNY     91  53  27 E6        29.95F
SCOTTSDALE     SUNNY     90  52  27 SE7       29.98F
MESA-FALCON    MOSUNNY  N/A N/A N/A S7        29.94F
MESA-GATEWAY   MOSUNNY   90  52  27 VRB5      29.98F
CHANDLER       MOSUNNY   91  52  25 S7        29.96F
$$

AZZ027-028-012100-
SOUTHWEST MARICOPA COUNTY AND PINAL COUNTY

CITY           SKY/WX    TMP DP  RH WIND       PRES   REMARKS
CASA GRANDE    SUNNY     91  46  21 S7        29.99F
GILA BEND      FAIR      94  46  19 VRB2      29.91F
$$

AZZ503-504-507>509-012100-
SOUTHEAST ARIZONA

CITY           SKY/WX    TMP DP  RH WIND       PRES   REMARKS
TUCSON         SUNNY     89  40  17 W8G17     30.07F
DAVIS-MONTHAN  SUNNY     87  46  24 VRB5      30.06F
RYAN FIELD     SUNNY     88  46  23 S3        30.06
NOGALES        MOSUNNY   86  42  21 W9G18     30.13F
SIERRA VISTA   PTSUNNY   80  44  27 NW8       30.19F
DOUGLAS        MOSUNNY   83  48  29 CALM      30.14F
SAFFORD        SUNNY     85  53  33 W8        30.07F
$$

AZZ020-021-025-026-031-012100-
SOUTHWEST ARIZONA

CITY           SKY/WX    TMP DP  RH WIND       PRES   REMARKS
YUMA           NOT AVBL
$$

CAZ031-033-041-043-047-048-061-012100-
SOUTHERN CALIFORNIA

CITY           SKY/WX    TMP DP  RH WIND       PRES   REMARKS
DOWNTOWN L.A.  SUNNY     83  61  47 CALM      29.95F
L.A. AIRPORT   SUNNY     75  62  64 W9        29.97F
SAN DIEGO      MOSUNNY   81  60  48 VRB6      29.98F
BURBANK        SUNNY     84  49  29 S9        29.97F
ONTARIO        MOSUNNY   86  46  24 SW8       29.97F
RIVERSIDE      SUNNY     88  47  24 W8        29.96F
PALM SPRINGS   SUNNY     94  48  20 MISG      29.90F
EL CENTRO NAS  MOSUNNY   96  50  20 E8        29.87F
IMPERIAL       SUNNY     98  55  23 CALM      29.85F
BLYTHE         SUNNY     97  51  21 SE12      29.87F
NEEDLES          N/A    N/A N/A N/A MISG      29.89F
$$

NVZ020-UTZ003-012100-
SOUTHERN NEVADA-UTAH

CITY           SKY/WX    TMP DP  RH WIND       PRES   REMARKS
LAS VEGAS      MOSUNNY   89  39  17 SW10G23   29.95F
SALT LAKE CITY PTSUNNY   79  47  32 S21       30.00F
$$

NMZ009-TXZ055-012100-
NEW MEXICO-WEST TEXAS

CITY           SKY/WX    TMP DP  RH WIND       PRES   REMARKS
ALBUQUERQUE    PTSUNNY   75  45  34 W9        30.17F
EL PASO        MOSUNNY   82  52  35 W14       30.09F
$$


........................KEY........................
SKY/WX - SKY CONDITION/WEATHER
TMP    - TEMPERATURE IN FAHRENHEIT
DP     - DEW POINT IN FAHRENHEIT
RH     - RELATIVE HUMIDITY IN PERCENT
WIND   - DIRECTION AND SPEED IN MILES PER HOUR (MPH)
VRB    - VARIABLE WIND DIRECTION
PRES   - MEAN SEA LEVEL PRESSURE IN INCHES OF MERCURY
         F - FALLING PRESSURE   R - RISING PRESSURE
         S - STEADY PRESSURE
VSB    - VISIBILITY IN MILES
HX     - HEAT INDEX IN FAHRENHEIT
WCI    - WIND CHILL INDEX IN FAHRENHEIT
TC     - TEMPERATURE IN CELSIUS WHICH IS ALSO KNOWN AS
         TEMPERATURE IN CENTIGRADE
AFB    - AIR FORCE BASE
         LUKE AFB IS LUKE AIR FORCE BASE
         DAVIS-MONTHAN IS DAVIS-MONTHAN AIR FORCE BASE
NAS    - NAVAL AIR STATION
         EL CENTRO NAS IS EL CENTRO NAVAL AIR STATION
N/A    - NOT AVAILABLE




USA.gov is the U.S. government's official web portal to all federal, state and local government web resources and services.